This is the latest recevied weather packets stored in our database for station/object IA5KRO-13. If no packets are shown the sender has not sent any weather packets the latest 1 day(s).
| Time | Temp. | Humidity | Pressure | Rain* | Wind** | Luminosity | Snow |
|---|---|---|---|---|---|---|---|
| 1778023213 | 17.22° C | 92% | 1019 hPa | 0 mm | 0.45 m/s, 188° | - | - |
| 1778022913 | 17.22° C | 91% | 1019 hPa | 0 mm | 2.68 m/s, 282° | - | - |
| 1778022613 | 17.22° C | 92% | 1018.3 hPa | 0 mm | 5.36 m/s, 294° | - | - |
| 1778022035 | 17.22° C | 92% | 1018.3 hPa | 0 mm | 2.68 m/s, 249° | - | - |
| 1778021709 | 17.22° C | 93% | 1018.3 hPa | 0 mm | 2.24 m/s, 78° | - | - |
| 1778021412 | 17.22° C | 94% | 1018.3 hPa | 0 mm | 1.79 m/s, 94° | - | - |
| 1778021112 | 17.22° C | 94% | 1019 hPa | 0 mm | 1.34 m/s, 169° | - | - |
| 1778020813 | 17.22° C | 93% | 1019 hPa | 0 mm | 1.79 m/s, 270° | - | - |
| 1778020509 | 17.22° C | 93% | 1019 hPa | 0.25 mm | 1.79 m/s, 288° | - | - |
| 1778020222 | 17.22° C | 93% | 1019 hPa | 0.25 mm | 2.68 m/s, 307° | - | - |
| 1778019909 | 17.22° C | 93% | 1019 hPa | 0 mm | 3.13 m/s, 279° | - | - |
| 1778019613 | 17.22° C | 94% | 1019.3 hPa | 0 mm | 0.89 m/s, 223° | - | - |
| 1778019313 | 17.22° C | 94% | 1019.3 hPa | 0 mm | 3.13 m/s, 174° | - | - |
| 1778019013 | 17.22° C | 95% | 1019.3 hPa | 0 mm | 1.34 m/s, 66° | - | - |
| 1778018709 | 17.22° C | 94% | 1019.3 hPa | 0 mm | 5.36 m/s, 309° | - | - |
| 1778018109 | 17.22° C | 94% | 1019.3 hPa | 0.25 mm | 4.02 m/s, 292° | - | - |
| 1778017814 | 17.22° C | 94% | 1019.3 hPa | 0.25 mm | 1.79 m/s, 257° | - | - |
| 1778017513 | 17.22° C | 96% | 1019.3 hPa | 0.76 mm | 2.68 m/s, 301° | - | - |
| 1778017213 | 17.22° C | 94% | 1019.3 hPa | 1.02 mm | 2.68 m/s, 203° | - | - |
| 1778016909 | 17.22° C | 93% | 1020 hPa | 0.76 mm | 0.89 m/s, 322° | - | - |
| 1778016309 | 17.22° C | 92% | 1020 hPa | 0 mm | 1.79 m/s, 282° | - | - |
| 1778016016 | 17.22° C | 91% | 1020 hPa | 0.25 mm | 1.34 m/s, 328° | - | - |
| 1778015713 | 17.22° C | 91% | 1020 hPa | 0.25 mm | 3.13 m/s, 274° | - | - |
| 1778015414 | 17.78° C | 89% | 1020 hPa | 0 mm | 2.68 m/s, 236° | - | - |
| 1778015111 | 17.78° C | 88% | 1020 hPa | 0.25 mm | 2.68 m/s, 311° | - | - |
* Rain latest hour (hover to see other rain measurements)
** Current wind speed in m/s (hover to see current wind gust speed)